Home   Weather   Fresno   Past weeks
Flag for USA

Past Weather in Fresno, California, USA — Yesterday and Last 2 Weeks

Now
62 °F

Passing clouds.


Feels Like: 62 °F
Forecast: 79 / 58 °F
Wind: 3 mph from Southeast

Location: Fresno Air Terminal

Current Time: May 25, 2019 at 4:20:08 am

Latest Report: May 25, 2019 at 3:53 am


Visibility: 10 mi

Pressure: 29.81 "Hg

Humidity: 80%

Dew Point: 56 °F

Location of FresnoLocation

Past Weather in Fresno — Graph

°F

Fresno Temperature Yesterday

Maximum temperature yesterday: 77 °F (at 6:53 pm)
Minimum temperature yesterday: 58 °F (at 2:53 am)
Average temperature yesterday: 67 °F

High & Low Weather Summary for the Past Weeks

 TemperatureHumidityPressure
High89 °F (May 12, 2:53 pm)93% (May 16, 4:42 am)30.11 "Hg (May 16, 4:42 am)
Low49 °F (May 20, 5:53 am)14% (May 13, 3:53 pm)29.69 "Hg (May 10, 2:53 am)
Average64 °F61%29.89 "Hg
* Reported May 10 2:53 am — May 25 2:53 am, Fresno. Weather by CustomWeather, © 2019

Note: Actual official high and low records may vary slightly from our data, if they occured in-between our weather recording intervals... More about our weather records

Advertising

Fresno Weather History for the Previous 24 Hours

Scroll right to see more
 ConditionsComfort  
Time TempWeatherWind HumidityBarometerVisibility
2:53 am
Sat, May 25
64 °FPassing clouds.No wind75%29.83 "Hg10 mi
1:53 am65 °FPassing clouds.3 mph73%29.84 "Hg10 mi
12:53 am66 °FPassing clouds.7 mph70%29.85 "Hg10 mi
11:53 pm
Fri, May 24
67 °FPassing clouds.7 mph71%29.87 "Hg10 mi
10:53 pm70 °FPassing clouds.6 mph59%29.88 "Hg10 mi
9:53 pm70 °FPassing clouds.7 mph61%29.88 "Hg10 mi
8:53 pm72 °FPassing clouds.9 mph52%29.87 "Hg10 mi
7:53 pm73 °FPartly sunny.14 mph50%29.86 "Hg10 mi
6:53 pm77 °FScattered clouds.8 mph40%29.85 "Hg10 mi
5:53 pm76 °FScattered clouds.5 mph39%29.87 "Hg10 mi
4:53 pm76 °FScattered clouds.3 mph40%29.88 "Hg10 mi
3:53 pm76 °FScattered clouds.7 mph42%29.91 "Hg10 mi
2:53 pm74 °FPartly sunny.3 mph45%29.94 "Hg10 mi
1:53 pm73 °FScattered clouds.3 mph46%29.97 "Hg10 mi
12:53 pm71 °FScattered clouds.3 mph55%29.99 "Hg10 mi
11:53 am69 °FBroken clouds.6 mph55%30.01 "Hg10 mi
10:53 am67 °FScattered clouds.3 mph57%30.01 "Hg10 mi
9:53 am64 °FPartly sunny.6 mph63%30.01 "Hg10 mi
8:53 am62 °FPartly sunny.3 mph62%30.02 "Hg10 mi
7:53 am61 °FBroken clouds.3 mph70%30.01 "Hg10 mi
6:53 am60 °FMostly cloudy.No wind75%30.00 "Hg10 mi
5:53 am58 °FMostly cloudy.3 mph84%29.99 "Hg10 mi
4:53 am58 °FOvercast.No wind84%29.98 "Hg10 mi
Weather by CustomWeather, © 2019

See weather overview